Regional Weather Roundup
Issued by NWS

Home | Current Version | Previous Version | Graphics & Text | Print | Product List | Glossary On
Versions: 1 2 3 4 5 6 7 8 9 10 11 12 13 14 15 16 17 18 19 20 21 22 23 24 25 26 27 28 29 30 31 32 33 34 35 36 37 38 39 40 41 42 43 44 45 46 47 48 49 50
000
ASUS43 KLSX 082157
RWRMO

WEATHER SUMMARY FOR MISSOURI
NATIONAL WEATHER SERVICE SPRINGFIELD MO
400 PM CST THU DEC 08 2016

NOTE: "FAIR" INDICATES FEW OR NO CLOUDS BELOW 12,000 FEET WITH NO
       SIGNIFICANT WEATHER AND/OR OBSTRUCTIONS TO VISIBILITY.
       CURRENT SKY AND/OR WEATHER CONDITIONS ARE NOT AVAILABLE FOR
       CHILLICOTHE AND FARMINGTON.

MOZ001>031-035>038-043-044-053-054-082300-
...NORTHERN AND WESTERN MISSOURI...

CITY           SKY/WX    TMP DP  RH WIND       PRES   REMARKS
KANSAS CTY INT PTCLDY    25   9  50 NW10      30.60R WCI  15
LEE`S SUMMIT   CLEAR     25  11  55 NW10      30.60R WCI  15
ST JOSEPH      CLEAR     25  10  53 NW16      30.62S WCI  12
CHILLICOTHE      N/A     26  10  50 NW9G20    30.58S WCI  17

$$
MOZ066>068-077>081-088>096-101>105-082300-
...SOUTHWEST MISSOURI...

CITY           SKY/WX    TMP DP  RH WIND       PRES   REMARKS
SPRINGFIELD    CLEAR     28  12  51 NW12      30.56R WCI  18
JOPLIN         CLEAR     28  14  55 NW12      30.62S WCI  18

$$
MOZ032>034-039>042-045>050-055>058-069>072-082300-
...CENTRAL MISSOURI...

CITY           SKY/WX    TMP DP  RH WIND       PRES   REMARKS
COLUMBIA       NOT AVBL
JEFFERSON CITY CLEAR     27  11  51 W9G17     30.57R WCI  18
ROLLA          CLEAR     27  12  53 NW12G20   30.51R WCI  17
SEDALIA        PTCLDY    26  13  57 NW12      30.58S WCI  16
WARRENSBURG    CLEAR     27  12  54 W9        30.60R WCI  17

$$
MOZ051-052-059>065-082300-
...EAST CENTRAL MISSOURI...

CITY           SKY/WX    TMP DP  RH WIND       PRES   REMARKS
ST LOUIS INTL  PTCLDY    29  11  47 W10G21    30.51R WCI  20

$$
MOZ072>076-082>087-097>100-106>115-082300-
...SOUTH CENTRAL AND SOUTHEAST MISSOURI...

CITY           SKY/WX    TMP DP  RH WIND       PRES   REMARKS
CAPE GIRARDEAU CLEAR     34  14  43 NW10      30.49R WCI  26
POPLAR BLUFF   CLEAR     36  12  37 NW12      30.51R WCI  28
WEST PLAINS    CLEAR     32  11  41 W10       30.52R WCI  24

$$


USA.gov is the U.S. government's official web portal to all federal, state and local government web resources and services.